User: anonymous   Login
Location: San Antonio
(29.4240°N, 98.4930°W)
Time: 04:10:19
(UTC-05:00)
Language:

Transit 4A - Orbit

View from above orbital plane
View from above orbital plane
View from above satellite
View from above satellite

Ground track
Ground track

The orbit data is extracted from the following two-line orbital elements,

1 00116U 61015A   24196.61544819  .00000156  00000-0  17867-3 0  9995
2 00116  66.8084 169.6793 0070417  41.6756 318.9658 13.92059289198906
Epoch (UTC): 14 July 2024 14:46:14
Eccentricity: 0.0070417
inclination: 66.8084°
perigee height: 870 km
apogee height: 973 km
right ascension of ascending node: 169.6793°
argument of perigee: 41.6756°
revolutions per day: 13.92059289
mean anomaly at epoch: 318.9658°
orbit number at epoch: 19890

The dashed part of the orbit path shows where the satellite is in the earth's shadow,  

DLR